Location: Ebersheim
(48.3033°N, 7.4991°E)
Time: 09:28:03
(UTC+00:00)

STARLINK-78 - Pass Details

Date: 27 February 2020
Orbit: 528 x 531 km, 53.0° (Epoch: 28 March)

Event Time Altitude Azimuth Distance (km) Brightness Sun altitude
Rises 18:53:32 0° 286° (WNW) 2,668 8.8 -17.9°
Reaches altitude 10° 18:55:50 10° 293° (WNW) 1,778 7.4 -18.3°
Maximum altitude 18:59:42 43° 6° (N) 759 4.3 -19.0°
Enters shadow 19:00:42 35° 44° (NE) 867 4.3 -19.1°
